• In Deutschland
  • Länderverzeichnis
  • Für 7 Tage
  • Wassertemperatur
  • Satellitenkarten
  • Wetterkarte
  • Widgets
  • user-avatar
    Anmelden

    Stündliche Wetter Dzierżoniów

    Heute, 12 Dezember, Dienstag

    Zeit Temperatur Niederschläge Wind Luftdruck Luftfeuchtigkeit
    00:00 +8°C° 0 mm 7 m/S 718 mmHg 79%
    01:00 +7°C° 0 mm 4 m/S 719 mmHg 82%
    02:00 +7°C° 0 mm 4 m/S 719 mmHg 83%
    03:00 +7°C° 0 mm 4 m/S 720 mmHg 83%
    04:00 +7°C° 0 mm 5 m/S 721 mmHg 84%
    05:00 +6°C° 0,1 mm 5 m/S 721 mmHg 83%
    06:00 +6°C° 0,1 mm 5 m/S 722 mmHg 82%
    07:00 +5°C° 0 mm 3 m/S 723 mmHg 86%
    08:00 +6°C° 0 mm 4 m/S 724 mmHg 81%
    09:00 +5°C° 0 mm 6 m/S 725 mmHg 75%
    10:00 +5°C° 0 mm 7 m/S 726 mmHg 69%
    11:00 +5°C° 0 mm 8 m/S 727 mmHg 66%
    12:00 +5°C° 0 mm 8 m/S 728 mmHg 63%
    13:00 +4°C° 0 mm 7 m/S 729 mmHg 60%
    14:00 +4°C° 0 mm 7 m/S 730 mmHg 61%
    15:00 +3°C° 0 mm 7 m/S 731 mmHg 63%
    16:00 +2°C° 0 mm 7 m/S 732 mmHg 64%
    17:00 +2°C° 0 mm 6 m/S 733 mmHg 65%
    18:00 +1°C° 0 mm 6 m/S 734 mmHg 65%
    19:00 +1°C° 0 mm 6 m/S 734 mmHg 66%
    20:00 +1°C° 0 mm 6 m/S 735 mmHg 67%
    21:00 0°C° 0 mm 5 m/S 735 mmHg 68%
    22:00 0°C° 0 mm 5 m/S 736 mmHg 70%
    23:00 0°C° 0 mm 5 m/S 736 mmHg 72%

    Morgen, 13 Dezember, Mittwoch

    Zeit Temperatur Niederschläge Wind Luftdruck Luftfeuchtigkeit
    00:00 -1°C° 0 mm 4 m/S 737 mmHg 75%
    01:00 -1°C° 0 mm 4 m/S 737 mmHg 77%
    02:00 0°C° 0 mm 3 m/S 737 mmHg 79%
    03:00 0°C° 0 mm 3 m/S 738 mmHg 80%
    04:00 -1°C° 0 mm 3 m/S 738 mmHg 82%
    05:00 -1°C° 0 mm 3 m/S 738 mmHg 83%
    06:00 -1°C° 0 mm 3 m/S 738 mmHg 85%
    07:00 -2°C° 0 mm 2 m/S 738 mmHg 86%
    08:00 -1°C° 0 mm 3 m/S 739 mmHg 82%
    09:00 -1°C° 0 mm 3 m/S 739 mmHg 78%
    10:00 0°C° 0 mm 3 m/S 739 mmHg 74%
    11:00 -1°C° 0 mm 4 m/S 738 mmHg 71%
    12:00 0°C° 0 mm 4 m/S 738 mmHg 68%
    13:00 0°C° 0 mm 4 m/S 737 mmHg 65%
    14:00 0°C° 0 mm 4 m/S 737 mmHg 68%
    15:00 -1°C° 0 mm 4 m/S 736 mmHg 71%
    16:00 -2°C° 0 mm 4 m/S 735 mmHg 74%
    17:00 -2°C° 0 mm 4 m/S 735 mmHg 73%
    18:00 -2°C° 0 mm 5 m/S 734 mmHg 72%
    19:00 -2°C° 0 mm 5 m/S 733 mmHg 70%
    20:00 -2°C° 0 mm 6 m/S 732 mmHg 68%
    21:00 -2°C° 0 mm 6 m/S 731 mmHg 65%
    22:00 -2°C° 0 mm 7 m/S 730 mmHg 62%
    23:00 -2°C° 0 mm 7 m/S 729 mmHg 62%

    übermorgen, 14 Dezember, Donnerstag

    Zeit Temperatur Niederschläge Wind Luftdruck Luftfeuchtigkeit
    00:00 -1°C° 0 mm 7 m/S 728 mmHg 62%
    01:00 -1°C° 0 mm 7 m/S 727 mmHg 62%
    02:00 -1°C° 0,1 mm 7 m/S 726 mmHg 64%
    03:00 0°C° 0,1 mm 8 m/S 725 mmHg 66%
    04:00 0°C° 0,1 mm 9 m/S 724 mmHg 68%
    05:00 0°C° 0,4 mm 9 m/S 723 mmHg 69%
    06:00 +1°C° 0,4 mm 9 m/S 723 mmHg 69%
    07:00 +1°C° 0,4 mm 9 m/S 723 mmHg 70%
    08:00 +1°C° 0,1 mm 9 m/S 723 mmHg 68%
    09:00 +1°C° 0,1 mm 9 m/S 724 mmHg 65%
    10:00 +2°C° 0,1 mm 9 m/S 724 mmHg 63%
    11:00 +1°C° 0,1 mm 10 m/S 725 mmHg 64%
    12:00 +1°C° 0,1 mm 10 m/S 725 mmHg 64%
    13:00 -1°C° 0,1 mm 11 m/S 726 mmHg 64%
    14:00 0°C° 0 mm 9 m/S 726 mmHg 64%
    15:00 -1°C° 0 mm 7 m/S 727 mmHg 64%
    16:00 -1°C° 0 mm 6 m/S 727 mmHg 64%
    17:00 -2°C° 0 mm 6 m/S 727 mmHg 66%
    18:00 -2°C° 0 mm 6 m/S 727 mmHg 67%
    19:00 -2°C° 0 mm 6 m/S 727 mmHg 69%
    20:00 -2°C° 0 mm 6 m/S 726 mmHg 69%
    21:00 -2°C° 0 mm 6 m/S 726 mmHg 70%
    22:00 -2°C° 0 mm 6 m/S 725 mmHg 70%
    23:00 -2°C° 0,1 mm 6 m/S 724 mmHg 73%

    15 Dezember, Freitag

    Zeit Temperatur Niederschläge Wind Luftdruck Luftfeuchtigkeit
    00:00 -1°C° 0,1 mm 7 m/S 723 mmHg 75%
    01:00 -1°C° 0,1 mm 7 m/S 722 mmHg 78%
    02:00 0°C° 0,5 mm 8 m/S 721 mmHg 77%
    03:00 0°C° 0,5 mm 8 m/S 720 mmHg 77%
    04:00 +1°C° 0,5 mm 9 m/S 719 mmHg 77%
    05:00 +1°C° 0,1 mm 9 m/S 720 mmHg 75%
    06:00 +1°C° 0,1 mm 9 m/S 720 mmHg 73%
    07:00 +1°C° 0,1 mm 10 m/S 720 mmHg 71%
    08:00 +1°C° 0 mm 10 m/S 720 mmHg 70%
    09:00 +1°C° 0 mm 10 m/S 721 mmHg 69%
    10:00 0°C° 0 mm 10 m/S 722 mmHg 68%
    11:00 0°C° 0 mm 9 m/S 722 mmHg 68%
    12:00 0°C° 0 mm 8 m/S 723 mmHg 68%
    13:00 0°C° 0 mm 7 m/S 724 mmHg 68%
    14:00 +1°C° 0 mm 6 m/S 724 mmHg 70%
    15:00 0°C° 0 mm 5 m/S 725 mmHg 73%
    16:00 0°C° 0 mm 4 m/S 725 mmHg 75%
    17:00 -1°C° 0 mm 4 m/S 725 mmHg 76%
    18:00 -1°C° 0 mm 3 m/S 726 mmHg 77%
    19:00 -1°C° 0 mm 3 m/S 726 mmHg 78%
    20:00 -1°C° 0 mm 3 m/S 726 mmHg 80%
    21:00 -1°C° 0 mm 3 m/S 726 mmHg 82%
    22:00 0°C° 0 mm 3 m/S 726 mmHg 84%
    23:00 -1°C° 0 mm 3 m/S 726 mmHg 85%

    16 Dezember, Samstag

    Zeit Temperatur Niederschläge Wind Luftdruck Luftfeuchtigkeit
    00:00 -1°C° 0 mm 3 m/S 726 mmHg 87%
    01:00 -1°C° 0 mm 3 m/S 726 mmHg 88%
    02:00 -1°C° 0 mm 3 m/S 727 mmHg 88%
    03:00 -1°C° 0 mm 3 m/S 727 mmHg 88%
    04:00 -1°C° 0 mm 3 m/S 727 mmHg 88%
    05:00 -1°C° 0 mm 3 m/S 727 mmHg 88%
    06:00 -1°C° 0 mm 3 m/S 728 mmHg 88%
    07:00 -1°C° 0 mm 3 m/S 728 mmHg 88%
    08:00 -1°C° 0,1 mm 4 m/S 729 mmHg 85%
    09:00 -1°C° 0,1 mm 4 m/S 729 mmHg 82%
    10:00 0°C° 0,1 mm 5 m/S 730 mmHg 80%
    11:00 0°C° 0 mm 5 m/S 730 mmHg 77%
    12:00 +1°C° 0 mm 5 m/S 731 mmHg 75%
    13:00 +1°C° 0 mm 6 m/S 731 mmHg 73%
    14:00 0°C° 0 mm 5 m/S 731 mmHg 75%
    15:00 0°C° 0 mm 5 m/S 732 mmHg 78%
    16:00 -1°C° 0 mm 5 m/S 732 mmHg 80%
    17:00 -1°C° 0 mm 5 m/S 732 mmHg 81%
    18:00 -1°C° 0 mm 4 m/S 733 mmHg 83%
    19:00 -2°C° 0 mm 4 m/S 733 mmHg 84%
    20:00 -2°C° 0 mm 4 m/S 734 mmHg 85%
    21:00 -2°C° 0 mm 4 m/S 734 mmHg 86%
    22:00 -2°C° 0 mm 4 m/S 735 mmHg 86%
    23:00 -3°C° 0 mm 4 m/S 735 mmHg 86%

    17 Dezember, Sonntag

    Zeit Temperatur Niederschläge Wind Luftdruck Luftfeuchtigkeit
    00:00 -3°C° 0 mm 4 m/S 735 mmHg 86%
    01:00 -3°C° 0 mm 4 m/S 736 mmHg 87%
    02:00 -3°C° 0 mm 4 m/S 736 mmHg 86%
    03:00 -3°C° 0 mm 4 m/S 736 mmHg 86%
    04:00 -3°C° 0 mm 4 m/S 737 mmHg 85%
    05:00 -3°C° 0 mm 4 m/S 737 mmHg 86%
    06:00 -2°C° 0 mm 3 m/S 737 mmHg 86%
    07:00 -2°C° 0 mm 3 m/S 738 mmHg 86%
    08:00 -2°C° 0 mm 4 m/S 738 mmHg 84%
    09:00 -2°C° 0 mm 4 m/S 739 mmHg 82%
    10:00 -1°C° 0 mm 4 m/S 740 mmHg 79%
    11:00 -1°C° 0 mm 4 m/S 740 mmHg 78%
    12:00 0°C° 0 mm 4 m/S 740 mmHg 77%
    13:00 0°C° 0 mm 4 m/S 740 mmHg 76%
    14:00 -1°C° 0 mm 4 m/S 741 mmHg 78%
    15:00 0°C° 0 mm 3 m/S 741 mmHg 80%
    16:00 0°C° 0 mm 3 m/S 742 mmHg 82%
    17:00 -1°C° 0 mm 2 m/S 742 mmHg 84%
    18:00 -1°C° 0 mm 2 m/S 742 mmHg 87%
    19:00 -1°C° 0 mm 2 m/S 743 mmHg 89%
    20:00 -1°C° 0,1 mm 2 m/S 743 mmHg 89%
    21:00 -1°C° 0,1 mm 2 m/S 744 mmHg 89%
    22:00 -1°C° 0,1 mm 2 m/S 744 mmHg 90%
    23:00 -1°C° 0,1 mm 2 m/S 744 mmHg 90%
    Mehr zeigen